TimeEDT,TemperatureF,Dew PointF,Humidity,Sea Level PressureIn,VisibilityMPH,Wind Direction,Wind SpeedMPH,Gust SpeedMPH,PrecipitationIn,Events,Conditions,WindDirDegrees,DateUTC
12:18 AM,50.0,44.1,80,29.71,6.0,SSE,13.8,24.2,0.03,Rain,Rain,160,2013-03-12 04:18:00
12:28 AM,48.9,44.1,83,29.72,4.0,South,9.2,-,0.06,Rain,Rain,180,2013-03-12 04:28:00
12:38 AM,48.9,44.1,83,29.71,4.0,SSE,11.5,21.9,0.08,Rain,Rain,150,2013-03-12 04:38:00
12:53 AM,48.9,44.1,83,29.73,4.0,West,12.7,-,0.14,Rain,Rain,280,2013-03-12 04:53:00
12:58 AM,46.9,42.1,83,29.73,1.8,West,9.2,-,0.08,Rain,Heavy Rain,270,2013-03-12 04:58:00
1:07 AM,46.0,41.0,83,29.73,2.5,WSW,6.9,-,0.12,Rain,Rain,240,2013-03-12 05:07:00
1:45 AM,46.0,41.0,83,29.73,6.0,Variable,4.6,-,0.18,Rain,Light Rain,0,2013-03-12 05:45:00
2:00 AM,46.0,41.0,83,29.73,5.0,SSW,4.6,-,0.01,Rain,Light Rain,210,2013-03-12 06:00:00
2:53 AM,45.0,41.0,86,29.73,6.0,SSW,4.6,-,0.04,Rain,Light Rain,210,2013-03-12 06:53:00
3:53 AM,45.0,39.9,82,29.73,5.0,SW,5.8,-,0.04,Rain,Light Rain,220,2013-03-12 07:53:00
4:46 AM,42.1,37.9,85,29.73,5.0,West,5.8,-,0.05,Rain,Light Rain,270,2013-03-12 08:46:00
4:53 AM,42.1,37.9,85,29.75,6.0,WSW,4.6,-,0.05,Rain,Light Rain,240,2013-03-12 08:53:00
5:53 AM,39.9,35.1,83,29.78,10.0,WSW,8.1,-,0.03,,Overcast,250,2013-03-12 09:53:00
6:53 AM,39.0,35.1,86,29.79,7.0,Variable,4.6,-,N/A,,Overcast,0,2013-03-12 10:53:00
7:53 AM,37.9,34.0,86,29.80,6.0,WSW,5.8,-,0.00,,Overcast,240,2013-03-12 11:53:00
8:53 AM,37.0,33.1,86,29.80,3.0,WNW,11.5,18.4,N/A,,Overcast,290,2013-03-12 12:53:00
9:16 AM,35.1,30.9,85,29.79,2.5,WNW,10.4,-,N/A,,Overcast,290,2013-03-12 13:16:00
9:23 AM,35.1,30.9,85,29.79,2.0,WNW,6.9,-,N/A,,Overcast,290,2013-03-12 13:23:00
9:36 AM,35.1,30.9,85,29.80,2.0,West,9.2,-,N/A,,Overcast,280,2013-03-12 13:36:00
9:53 AM,35.1,30.9,85,29.83,2.0,West,5.8,-,N/A,,Overcast,270,2013-03-12 13:53:00
10:38 AM,35.1,32.0,89,29.81,3.0,Variable,4.6,-,N/A,,Overcast,0,2013-03-12 14:38:00
10:53 AM,35.1,30.9,85,29.83,3.0,Variable,4.6,-,N/A,,Overcast,0,2013-03-12 14:53:00
11:16 AM,36.0,30.9,82,29.80,10.0,SW,5.8,19.6,N/A,,Overcast,220,2013-03-12 15:16:00
11:23 AM,36.0,30.9,82,29.80,10.0,WSW,9.2,-,N/A,,Overcast,250,2013-03-12 15:23:00
11:53 AM,37.0,30.9,79,29.81,10.0,WSW,6.9,-,N/A,,Overcast,240,2013-03-12 15:53:00
12:20 PM,37.9,30.0,73,29.79,10.0,WSW,9.2,-,N/A,,Overcast,240,2013-03-12 16:20:00
12:53 PM,37.0,30.0,76,29.82,10.0,West,4.6,-,0.00,,Overcast,260,2013-03-12 16:53:00
1:53 PM,37.0,28.0,70,29.81,10.0,West,9.2,16.1,N/A,,Overcast,270,2013-03-12 17:53:00
2:53 PM,37.9,28.0,68,29.80,10.0,WSW,9.2,-,0.00,,Overcast,250,2013-03-12 18:53:00
3:53 PM,37.0,28.0,70,29.82,10.0,West,11.5,-,N/A,,Overcast,270,2013-03-12 19:53:00
4:14 PM,35.1,28.0,76,29.79,7.0,West,8.1,-,0.00,,Overcast,270,2013-03-12 20:14:00
4:53 PM,34.0,28.0,79,29.85,2.0,WSW,12.7,19.6,0.00,Snow,Light Snow,250,2013-03-12 20:53:00
5:00 PM,34.0,28.0,79,29.82,1.8,West,8.1,19.6,0.00,Snow,Light Snow,270,2013-03-12 21:00:00
5:03 PM,34.0,28.0,79,29.82,3.0,WSW,9.2,16.1,0.00,Snow,Light Snow,240,2013-03-12 21:03:00
5:53 PM,34.0,27.0,75,29.86,9.0,Variable,5.8,-,0.00,,Overcast,0,2013-03-12 21:53:00
6:06 PM,34.0,27.0,75,29.82,10.0,West,8.1,-,0.00,,Overcast,270,2013-03-12 22:06:00
6:53 PM,34.0,27.0,75,29.87,10.0,West,5.8,-,0.00,,Overcast,280,2013-03-12 22:53:00
7:15 PM,34.0,27.0,75,29.84,10.0,West,6.9,-,N/A,,Overcast,270,2013-03-12 23:15:00
7:53 PM,33.1,26.1,75,29.89,10.0,West,6.9,-,0.00,,Overcast,270,2013-03-12 23:53:00
8:53 PM,33.1,26.1,75,29.90,10.0,Variable,5.8,-,N/A,,Overcast,0,2013-03-13 00:53:00
9:33 PM,33.1,26.1,75,29.85,10.0,SW,5.8,-,N/A,,Overcast,230,2013-03-13 01:33:00
9:53 PM,33.1,26.1,75,29.91,9.0,SW,6.9,-,N/A,,Overcast,230,2013-03-13 01:53:00
10:03 PM,33.1,26.1,75,29.86,8.0,WSW,8.1,-,0.00,,Overcast,240,2013-03-13 02:03:00
10:53 PM,32.0,26.1,79,29.91,5.0,WSW,4.6,-,0.00,Snow,Light Snow,250,2013-03-13 02:53:00
11:03 PM,32.0,26.1,79,29.87,6.0,WSW,5.8,-,0.00,Snow,Light Snow,240,2013-03-13 03:03:00
11:12 PM,32.0,26.1,79,29.87,2.5,Variable,4.6,-,0.00,Snow,Light Snow,0,2013-03-13 03:12:00
11:22 PM,32.0,27.0,82,29.87,1.5,WSW,8.1,-,0.01,Snow,Light Snow,250,2013-03-13 03:22:00
11:27 PM,32.0,26.1,79,29.87,3.0,West,9.2,-,0.01,Snow,Light Snow,260,2013-03-13 03:27:00
11:41 PM,32.0,25.0,75,29.87,10.0,West,10.4,17.3,0.01,,Overcast,280,2013-03-13 03:41:00
11:53 PM,32.0,24.1,73,29.91,10.0,West,10.4,-,0.01,,Overcast,260,2013-03-13 03:53:00